When you browse on this site, cookies collect data to enhance your experience and personalize the content and advertising you see.
Visit our Privacy Policy to learn more. By continuing to use the site, you agree to this use of cookies and data.
  • In Lithuania
  • List of Countries
  • For 7 days
  • Water Temperature
  • Weather Map
  • Weather Widgets
  • user-avatar
    Login

    Hourly Weather Perth

    Today, 17 October, Thursday

    Time Temperature Precipitation Wind Pressure Humidity
    00:00 +12°C° 0 mm 3 mps 765 mmHg 72%
    01:00 +13°C° 0 mm 2 mps 765 mmHg 74%
    02:00 +12°C° 0 mm 2 mps 764 mmHg 75%
    03:00 +12°C° 0 mm 2 mps 764 mmHg 76%
    04:00 +10°C° 0 mm 2 mps 764 mmHg 77%
    05:00 +10°C° 0 mm 2 mps 764 mmHg 78%
    06:00 +12°C° 0 mm 2 mps 765 mmHg 72%
    07:00 +14°C° 0 mm 2 mps 765 mmHg 67%
    08:00 +15°C° 0 mm 1 mps 765 mmHg 58%
    09:00 +17°C° 0 mm 2 mps 765 mmHg 54%
    10:00 +19°C° 0 mm 2 mps 765 mmHg 49%
    11:00 +21°C° 0 mm 2 mps 764 mmHg 45%
    12:00 +21°C° 0 mm 3 mps 764 mmHg 46%
    13:00 +21°C° 0 mm 4 mps 763 mmHg 47%
    14:00 +21°C° 0 mm 5 mps 762 mmHg 48%
    15:00 +21°C° 0 mm 5 mps 762 mmHg 51%
    16:00 +20°C° 0 mm 5 mps 762 mmHg 53%
    17:00 +19°C° 0 mm 5 mps 762 mmHg 56%
    18:00 +17°C° 0 mm 5 mps 763 mmHg 64%
    19:00 +16°C° 0 mm 5 mps 763 mmHg 72%
    20:00 +15°C° 0 mm 4 mps 763 mmHg 79%
    21:00 +14°C° 0 mm 4 mps 763 mmHg 80%
    22:00 +14°C° 0 mm 4 mps 763 mmHg 82%
    23:00 +13°C° 0 mm 4 mps 763 mmHg 83%

    Tomorrow, 18 October, Friday

    Time Temperature Precipitation Wind Pressure Humidity
    00:00 +13°C° 0 mm 4 mps 763 mmHg 83%
    01:00 +13°C° 0 mm 4 mps 763 mmHg 83%
    02:00 +12°C° 0 mm 4 mps 763 mmHg 83%
    03:00 +12°C° 0 mm 4 mps 763 mmHg 83%
    04:00 +12°C° 0 mm 4 mps 763 mmHg 83%
    05:00 +11°C° 0 mm 4 mps 764 mmHg 84%
    06:00 +12°C° 0 mm 4 mps 764 mmHg 78%
    07:00 +13°C° 0 mm 4 mps 764 mmHg 72%
    08:00 +14°C° 0 mm 5 mps 764 mmHg 66%
    09:00 +17°C° 0 mm 4 mps 764 mmHg 59%
    10:00 +19°C° 0 mm 4 mps 764 mmHg 52%
    11:00 +22°C° 0 mm 3 mps 764 mmHg 44%
    12:00 +22°C° 0 mm 3 mps 763 mmHg 41%
    13:00 +23°C° 0 mm 4 mps 762 mmHg 38%
    14:00 +25°C° 0 mm 4 mps 761 mmHg 35%
    15:00 +25°C° 0 mm 4 mps 761 mmHg 37%
    16:00 +23°C° 0 mm 5 mps 761 mmHg 38%
    17:00 +23°C° 0 mm 5 mps 761 mmHg 39%
    18:00 +22°C° 0 mm 5 mps 762 mmHg 40%
    19:00 +20°C° 0 mm 5 mps 762 mmHg 41%
    20:00 +19°C° 0 mm 5 mps 763 mmHg 41%
    21:00 +17°C° 0 mm 5 mps 763 mmHg 44%
    22:00 +17°C° 0 mm 6 mps 763 mmHg 46%
    23:00 +16°C° 0 mm 6 mps 763 mmHg 48%

    Day after tomorrow, 19 October, Saturday

    Time Temperature Precipitation Wind Pressure Humidity
    00:00 +15°C° 0 mm 7 mps 763 mmHg 52%
    01:00 +14°C° 0 mm 7 mps 762 mmHg 56%
    02:00 +12°C° 0 mm 8 mps 762 mmHg 60%
    03:00 +12°C° 0 mm 8 mps 762 mmHg 61%
    04:00 +12°C° 0 mm 8 mps 763 mmHg 62%
    05:00 +11°C° 0 mm 8 mps 763 mmHg 62%
    06:00 +12°C° 0 mm 8 mps 763 mmHg 60%
    07:00 +14°C° 0 mm 7 mps 763 mmHg 57%
    08:00 +16°C° 0 mm 7 mps 763 mmHg 54%
    09:00 +19°C° 0 mm 6 mps 762 mmHg 50%
    10:00 +22°C° 0 mm 6 mps 762 mmHg 45%
    11:00 +25°C° 0 mm 5 mps 762 mmHg 40%
    12:00 +27°C° 0 mm 5 mps 761 mmHg 38%
    13:00 +28°C° 0 mm 4 mps 760 mmHg 35%
    14:00 +30°C° 0 mm 3 mps 759 mmHg 33%
    15:00 +30°C° 0 mm 3 mps 759 mmHg 34%
    16:00 +30°C° 0 mm 3 mps 758 mmHg 35%
    17:00 +30°C° 0 mm 3 mps 758 mmHg 35%
    18:00 +28°C° 0 mm 4 mps 758 mmHg 37%
    19:00 +27°C° 0 mm 4 mps 758 mmHg 38%
    20:00 +25°C° 0 mm 5 mps 758 mmHg 40%
    21:00 +25°C° 0 mm 5 mps 758 mmHg 38%
    22:00 +25°C° 0 mm 5 mps 758 mmHg 37%
    23:00 +25°C° 0 mm 5 mps 758 mmHg 35%

    20 October, Sunday

    Time Temperature Precipitation Wind Pressure Humidity
    00:00 +24°C° 0 mm 6 mps 758 mmHg 36%
    01:00 +23°C° 0 mm 6 mps 757 mmHg 36%
    02:00 +23°C° 0 mm 6 mps 757 mmHg 36%
    03:00 +22°C° 0 mm 6 mps 757 mmHg 38%
    04:00 +21°C° 0 mm 5 mps 757 mmHg 40%
    05:00 +21°C° 0 mm 5 mps 757 mmHg 42%
    06:00 +21°C° 0 mm 5 mps 757 mmHg 47%
    07:00 +22°C° 0 mm 5 mps 757 mmHg 52%
    08:00 +22°C° 0 mm 5 mps 757 mmHg 57%
    09:00 +23°C° 0 mm 5 mps 757 mmHg 55%
    10:00 +26°C° 0 mm 6 mps 757 mmHg 53%
    11:00 +28°C° 0 mm 7 mps 757 mmHg 50%
    12:00 +27°C° 0 mm 7 mps 757 mmHg 52%
    13:00 +27°C° 0 mm 7 mps 757 mmHg 53%
    14:00 +27°C° 0 mm 7 mps 757 mmHg 54%
    15:00 +26°C° 0 mm 7 mps 758 mmHg 59%
    16:00 +24°C° 0 mm 6 mps 758 mmHg 63%
    17:00 +23°C° 0 mm 5 mps 758 mmHg 68%
    18:00 +21°C° 0 mm 4 mps 759 mmHg 74%
    19:00 +20°C° 0 mm 4 mps 759 mmHg 80%
    20:00 +19°C° 0 mm 3 mps 760 mmHg 86%
    21:00 +19°C° 0 mm 2 mps 760 mmHg 87%
    22:00 +18°C° 0 mm 2 mps 760 mmHg 87%
    23:00 +18°C° 0 mm 2 mps 760 mmHg 88%

    21 October, Monday

    Time Temperature Precipitation Wind Pressure Humidity
    00:00 +18°C° 0 mm 2 mps 760 mmHg 88%
    01:00 +17°C° 0 mm 2 mps 759 mmHg 89%
    02:00 +17°C° 0 mm 2 mps 759 mmHg 90%
    03:00 +18°C° 0 mm 1 mps 759 mmHg 90%
    04:00 +18°C° 0 mm 1 mps 759 mmHg 90%
    05:00 +18°C° 0 mm 1 mps 759 mmHg 91%
    06:00 +19°C° 0 mm 1 mps 760 mmHg 87%
    07:00 +19°C° 0 mm 1 mps 760 mmHg 82%
    08:00 +20°C° 0 mm 1 mps 760 mmHg 78%
    09:00 +20°C° 0 mm 2 mps 760 mmHg 72%
    10:00 +21°C° 0 mm 2 mps 760 mmHg 67%
    11:00 +22°C° 0 mm 3 mps 760 mmHg 61%
    12:00 +24°C° 0 mm 3 mps 760 mmHg 58%
    13:00 +23°C° 0 mm 4 mps 760 mmHg 54%
    14:00 +25°C° 0 mm 4 mps 760 mmHg 51%
    15:00 +23°C° 0 mm 4 mps 760 mmHg 53%
    16:00 +22°C° 0 mm 4 mps 760 mmHg 54%
    17:00 +21°C° 0 mm 4 mps 760 mmHg 55%
    18:00 +20°C° 0 mm 4 mps 760 mmHg 62%
    19:00 +19°C° 0 mm 3 mps 761 mmHg 70%
    20:00 +17°C° 0 mm 3 mps 762 mmHg 77%
    21:00 +17°C° 0 mm 2 mps 762 mmHg 79%
    22:00 +17°C° 0 mm 2 mps 762 mmHg 81%
    23:00 +16°C° 0 mm 2 mps 762 mmHg 82%

    22 October, Tuesday

    Time Temperature Precipitation Wind Pressure Humidity
    00:00 +16°C° 0 mm 2 mps 762 mmHg 82%
    01:00 +16°C° 0 mm 1 mps 762 mmHg 82%
    02:00 +16°C° 0 mm 1 mps 762 mmHg 82%
    03:00 +16°C° 0 mm 1 mps 762 mmHg 82%
    04:00 +16°C° 0 mm 1 mps 762 mmHg 83%
    05:00 +15°C° 0 mm 0 mps 763 mmHg 84%
    06:00 +18°C° 0 mm 1 mps 763 mmHg 80%
    07:00 +19°C° 0 mm 1 mps 763 mmHg 76%
    08:00 +21°C° 0 mm 1 mps 763 mmHg 71%
    09:00 +22°C° 0.1 mm 1 mps 763 mmHg 68%
    10:00 +23°C° 0.1 mm 2 mps 763 mmHg 64%
    11:00 +24°C° 0.1 mm 3 mps 763 mmHg 60%
    12:00 +23°C° 0 mm 4 mps 763 mmHg 60%
    13:00 +23°C° 0 mm 5 mps 762 mmHg 59%
    14:00 +23°C° 0 mm 6 mps 762 mmHg 59%
    15:00 +22°C° 0 mm 6 mps 762 mmHg 60%
    16:00 +21°C° 0 mm 6 mps 762 mmHg 62%
    17:00 +20°C° 0 mm 6 mps 763 mmHg 63%
    18:00 +19°C° 0 mm 5 mps 763 mmHg 66%
    19:00 +16°C° 0 mm 5 mps 764 mmHg 68%
    20:00 +15°C° 0 mm 4 mps 765 mmHg 70%
    21:00 +14°C° 0 mm 4 mps 765 mmHg 71%
    22:00 +14°C° 0 mm 4 mps 765 mmHg 73%
    23:00 +13°C° 0 mm 4 mps 765 mmHg 74%
    Show more